STARLINK-4542 (53435 NORAD) Tracking and Keplerian Element Data

This shows tracking and keplerian element data for the satellite.

Feedback or suggestion? Click here.




ElementValue
Catalog53435
NameSTARLINK-4542
Epoch Orbit799
Epoch Day270.25001157
Epoch Year2022
RAAN10.2147
Inclination53.2177
Eccentricity0.0002679
Argument of Perigee19.7319
Mean Anonmoly163.2207
Mean Motion15.73172541
Decay Rate0.00085087
L11 53435U 22097AZ 22270.25001157 .00085087 00000+0 60519-3 0 9995
L22 53435 53.2177 10.2147 0002679 19.7319 163.2207 15.73172541 7998

Live tracking and technical data element details for STARLINK-4542 (NORAD 53435). STARLINK-4542 can be tracked NOW for your location showing map with azimuth and elevation plus other details from your city location.

Track the satellite on the map from your city or location and see movement details for azimuth, elevation, latitude, longitude, range, height, and movement on the map or in text.







IsCatalogInMostPopularTable: catalog: 53435, numindb: 3
Update: records affected: 1



GetName: 53435 STARLINK-4542

Hit Count: updated at: Thu, 29 Sep 2022 12:31:11 GMT